FW1737 Weather Reports


Display with metric or nautical units.
time (UTC)temp
F
wind
direction
speed
MPH
gust
MPH
rain 1hr
in
rain 24hr
in
rain mn
in
humidity
%
barometer
mb
20260902023028 57 209 0.0 0.0 0.00 0.00 0.00 99 1021.0
20260902021528 57 209 0.0 0.0 0.00 0.00 0.00 98 1020.9
20260902020031 57 209 0.0 2.0 0.00 0.00 0.00 98 1021.0
20260902014529 57 209 0.0 3.0 0.00 0.00 0.00 98 1020.9
20260902013025 57 209 0.0 3.0 0.00 0.00 0.00 98 1021.0
20260902011524 57 209 2.0 4.0 0.00 0.00 0.00 98 1020.9
20260902010022 57 209 0.0 2.0 0.00 0.00 0.00 98 1020.9
20260902004522 57 209 1.0 3.0 0.00 0.00 0.00 97 1020.7
20260902003021 57 209 0.0 2.0 0.00 0.00 0.00 96 1020.7
20260902001521 57 209 1.0 3.0 0.00 0.00 0.00 95 1020.6
20260902000018 58 209 0.0 4.0 0.00 0.00 0.00 95 1020.5
20260901234517 59 208 2.0 4.0 0.00 0.00 0.00 93 1020.4
20260901233027 60 36 0.0 3.0 0.00 0.00 0.00 93 1020.3
20260901231514 61 36 0.0 0.0 0.00 0.00 0.00 92 1020.1
20260901230013 61 36 0.0 0.0 0.00 0.00 0.00 91 1020.0
20260901224530 61 35 0.0 4.0 0.00 0.00 0.00 91 1019.8
20260901223011 61 38 0.0 2.0 0.00 0.00 0.00 90 1019.8
20260901221510 62 40 0.0 3.0 0.00 0.00 0.00 89 1019.6
20260901220008 63 34 0.0 4.0 0.00 0.00 0.00 87 1019.5
20260901214506 64 18 3.0 9.0 0.00 0.00 0.00 86 1019.2
20260901213006 65 33 3.0 10.0 0.00 0.00 0.00 86 1019.1
20260901211506 65 46 3.0 8.0 0.00 0.00 0.00 85 1019.0
20260901210001 66 51 3.0 7.0 0.00 0.00 0.00 82 1018.7
20260901204559 67 49 5.0 10.0 0.00 0.00 0.00 78 1018.6
20260901203103 67 87 5.0 12.0 0.00 0.00 0.00 76 1018.4
20260901201556 68 60 6.0 12.0 0.00 0.00 0.00 73 1018.3
20260901200107 70 55 2.0 6.0 0.00 0.00 0.00 67 1018.1
20260901194603 71 32 3.0 5.0 0.00 0.00 0.00 68 1018.0
20260901193108 71 5 1.0 4.0 0.00 0.00 0.00 68 1018.1
20260901191553 70 279 1.0 8.0 0.00 0.00 0.00 69 1018.0
20260901190104 71 325 2.0 8.0 0.00 0.00 0.00 68 1018.0
20260901184554 71 22 2.0 6.0 0.00 0.00 0.00 67 1018.0
20260901183052 70 268 3.0 9.0 0.00 0.00 0.00 68 1018.1
20260901181556 71 31 0.0 6.0 0.00 0.00 0.00 70 1017.9
20260901180045 69 11 2.0 8.0 0.00 0.00 0.00 74 1018.1
20260901174543 66 252 0.0 4.0 0.00 0.00 0.00 80 1018.1
20260901173042 65 261 0.0 5.0 0.00 0.00 0.00 83 1018.3
20260901171555 64 258 0.0 3.0 0.00 0.00 0.00 85 1018.4
20260901170041 65 302 0.0 4.0 0.00 0.00 0.00 80 1018.3
20260901164549 66 294 0.0 2.0 0.00 0.00 0.00 82 1018.4
20260901163043 66 232 0.0 5.0 0.00 0.00 0.00 78 1018.2
20260901161544 67 200 5.0 7.0 0.00 0.00 0.00 74 1018.0
20260901160039 67 216 2.0 4.0 0.00 0.00 0.00 74 1018.1
20260901154538 67 119 0.0 2.0 0.00 0.00 0.00 73 1018.0
20260901153037 67 118 0.0 2.0 0.00 0.00 0.00 74 1018.2
20260901151542 67 66 1.0 4.0 0.00 0.00 0.00 73 1018.3
20260901150039 67 101 0.0 3.0 0.00 0.00 0.00 73 1018.4
20260901144537 68 125 0.0 1.0 0.00 0.00 0.00 73 1018.4
20260901143034 68 147 1.0 4.0 0.00 0.00 0.00 68 1018.4
20260901141532 67 271 0.0 2.0 0.00 0.00 0.00 75 1018.5
20260901140032 66 186 0.0 3.0 0.00 0.00 0.00 79 1018.5
20260901134534 65 215 0.0 2.0 0.00 0.00 0.00 80 1018.2
20260901133025 64 227 0.0 2.0 0.00 0.00 0.00 81 1018.3
20260901131521 63 227 0.0 3.0 0.00 0.00 0.00 83 1018.3
20260901130018 62 229 1.0 3.0 0.00 0.00 0.00 90 1018.2
20260901124515 61 225 1.0 3.0 0.00 0.00 0.00 91 1018.3
20260901123019 61 214 0.0 0.0 0.00 0.00 0.00 94 1018.3
20260901121508 59 214 0.0 0.0 0.00 0.00 0.00 96 1018.2
20260901120005 58 214 0.0 0.0 0.00 0.00 0.00 97 1018.2
20260901114501 57 214 0.0 0.0 0.00 0.00 0.00 98 1018.2
20260901113105 56 214 0.0 0.0 0.00 0.00 0.00 98 1018.2
20260901111556 55 214 0.0 0.0 0.00 0.00 0.00 98 1018.1
20260901110103 54 214 0.0 0.0 0.00 0.00 0.00 100 1018.1
20260901104558 52 215 0.0 0.0 0.00 0.00 0.00 100 1018.0
20260901103048 50 215 0.0 0.0 0.00 0.00 0.00 100 1018.0
20260901101547 48 215 0.0 0.0 0.00 0.00 0.00 100 1017.9
20260901100059 46 215 0.0 0.0 0.00 0.00 0.00 100 1017.8
20260901094549 46 215 0.0 0.0 0.00 0.00 0.00 99 1017.5
20260901093050 47 216 0.0 2.0 0.00 0.00 0.00 100 1017.5
20260901091541 46 216 1.0 3.0 0.00 0.00 0.00 100 1017.5
20260901090041 46 216 0.0 0.0 0.00 0.00 0.00 100 1017.3
20260901084539 46 216 0.0 0.0 0.00 0.00 0.00 100 1017.1
20260901083038 47 216 0.0 0.0 0.00 0.00 0.00 100 1017.3
20260901081536 47 216 0.0 0.0 0.00 0.00 0.00 100 1017.1
20260901080035 46 216 1.0 4.0 0.00 0.00 0.00 100 1017.1
20260901074535 46 215 0.0 0.0 0.00 0.00 0.00 100 1017.0
20260901073032 46 215 0.0 0.0 0.00 0.00 0.00 99 1016.9
20260901071531 46 215 0.0 0.0 0.00 0.00 0.00 99 1016.9
20260901070031 46 215 0.0 0.0 0.00 0.00 0.00 99 1016.9
20260901064535 46 215 0.0 0.0 0.00 0.00 0.00 99 1016.7
20260901063031 47 215 0.0 0.0 0.00 0.00 0.00 99 1016.8
20260901061524 48 215 0.0 0.0 0.00 0.00 0.00 99 1016.8
20260901060022 48 215 0.0 4.0 0.00 0.00 0.00 99 1016.8
20260901054522 48 215 0.0 0.0 0.00 0.00 0.00 99 1016.6
20260901053018 48 215 0.0 0.0 0.00 0.00 0.00 99 1016.6
20260901051517 48 215 0.0 0.0 0.00 0.00 0.00 98 1016.6
20260901050017 48 215 0.0 2.0 0.00 0.00 0.00 98 1016.5
20260901044512 50 216 0.0 2.0 0.00 0.00 0.00 98 1016.4
20260901043011 50 216 0.0 1.0 0.00 0.00 0.00 98 1016.3
20260901041510 50 216 0.0 2.0 0.00 0.00 0.00 98 1016.3
20260901040015 50 216 0.0 3.0 0.00 0.00 0.00 97 1016.3
20260901034506 51 218 3.0 5.0 0.00 0.00 0.00 97 1016.2
20260901033003 51 224 3.0 5.0 0.00 0.00 0.00 98 1016.1
20260901031502 51 288 0.0 0.0 0.00 0.00 0.00 96 1016.0
20260901030059 51 288 0.0 0.0 0.00 0.00 0.00 96 1016.0
20260901024607 51 288 0.0 1.0 0.00 0.00 0.00 96 1015.8